Regional Weather Roundup
Issued by NWS

Home | Current Version | Previous Version | Graphics & Text | Print | Product List | Glossary On
Versions: 1 2 3 4 5 6 7 8 9 10 11 12 13 14 15 16 17 18 19 20 21 22 23 24 25 26 27 28 29 30 31 32 33 34 35 36 37 38 39 40 41 42 43 44 45 46 47 48 49 50
000
ASUS43 KLMK 011710
RWRKY
KENTUCKY REGIONAL WEATHER ROUNDUP
NATIONAL WEATHER SERVICE LOUISVILLE KY
100 PM EDT SAT AUG 01 2015

NOTE "FAIR" INDICATES FEW OR NO CLOUDS BELOW 12,000 FEET
WITH NO SIGNIFICANT WEATHER AND/OR OBSTRUCTIONS TO VISIBILITY.

KYZ001>023-026-027-061>063-070>075-011800-
WESTERN AND SOUTH CENTRAL KENTUCKY

CITY           SKY/WX    TMP DP  RH WIND       PRES   REMARKS
PADUCAH        SUNNY     88  71  57 NE6       30.03S HX  94
HENDERSON      SUNNY     82  61  47 NE5       30.03F
OWENSBORO      SUNNY     85  61  44 N8        30.04F
HOPKINSVILLE   MOSUNNY   86  70  59 NW8       30.03S HX  90
BOWLING GREEN  MOSUNNY   89  68  49 N7G20     30.03S HX  93
GLASGOW        MOSUNNY  N/A N/A N/A NW3       30.03S
$$

KYZ024-025-028>034-038-045-046-053-011800-
NORTH CENTRAL KENTUCKY

CITY           SKY/WX    TMP DP  RH WIND       PRES   REMARKS
LOUISVILLE/SDF MOSUNNY   86  56  35 N7        30.01S
LOUISVILLE/LOU SUNNY     84  57  39 NW10      30.02F
FORT KNOX      SUNNY     83  63  49 N8        30.01F
$$

KYZ035>037-039>044-047>052-055>060-089>105-011800-
NORTHEAST KENTUCKY

CITY           SKY/WX    TMP DP  RH WIND       PRES   REMARKS
LEXINGTON      SUNNY     83  59  44 NW5       30.03S
COVINGTON      MOSUNNY   81  53  37 VRB5      30.02F
FRANKFORT      SUNNY     83  56  39 NW9G17    30.02S
$$

KYZ054-064>069-076>088-106>120-011800-
SOUTHEAST KENTUCKY

CITY           SKY/WX    TMP DP  RH WIND       PRES   REMARKS
JACKSON        SUNNY     82  58  43 NW7       30.03F
LONDON         MOSUNNY   85  60  42 NW8       30.04F
SOMERSET       SUNNY     81  63  54 NW5       30.04F
MIDDLESBORO    MOSUNNY   84  64  50 CALM      30.05F
MONTICELLO     SUNNY     87  69  54 N8        30.06F HX  91
$$




USA.gov is the U.S. government's official web portal to all federal, state and local government web resources and services.